Data supplied by UK-AIR on 5/4/2008
All Data GMT hour ending 
Status: R =Ratified P=Provisional,P*=As supplied
,,Stockton-on-Tees Yarm,,,,,,,,,,,,,,,,,,,,,,,
Date,time,"PM10 particulate matter (Hourly measured)",status,unit,"Nitric oxide",status,unit,"Nitrogen dioxide",status,unit,"Nitrogen oxides as nitrogen dioxide",status,unit
 
01-01-2001,01:00,14,R,ugm-3 (GRAV EQ),,,,,,,,,
01-01-2001,02:00,9,R,ugm-3 (GRAV EQ),15,R,ugm-3,25,R,ugm-3,48,R,ugm-3
01-01-2001,03:00,12,R,ugm-3 (GRAV EQ),20,R,ugm-3,31,R,ugm-3,61,R,ugm-3
01-01-2001,04:00,12,R,ugm-3 (GRAV EQ),11,R,ugm-3,23,R,ugm-3,40,R,ugm-3
01-01-2001,05:00,12,R,ugm-3 (GRAV EQ),10,R,ugm-3,21,R,ugm-3,36,R,ugm-3
01-01-2001,06:00,10,R,ugm-3 (GRAV EQ),1,R,ugm-3,15,R,ugm-3,17,R,ugm-3
01-01-2001,07:00,12,R,ugm-3 (GRAV EQ),6,R,ugm-3,23,R,ugm-3,32,R,ugm-3
01-01-2001,08:00,10,R,ugm-3 (GRAV EQ),14,R,ugm-3,27,R,ugm-3,48,R,ugm-3
01-01-2001,09:00,17,R,ugm-3 (GRAV EQ),11,R,ugm-3,27,R,ugm-3,44,R,ugm-3
01-01-2001,10:00,14,R,ugm-3 (GRAV EQ),15,R,ugm-3,27,R,ugm-3,50,R,ugm-3
01-01-2001,11:00,22,R,ugm-3 (GRAV EQ),56,R,ugm-3,44,R,ugm-3,130,R,ugm-3
01-01-2001,12:00,18,R,ugm-3 (GRAV EQ),46,R,ugm-3,31,R,ugm-3,101,R,ugm-3
01-01-2001,13:00,29,R,ugm-3 (GRAV EQ),110,R,ugm-3,52,R,ugm-3,220,R,ugm-3
01-01-2001,14:00,22,R,ugm-3 (GRAV EQ),50,R,ugm-3,40,R,ugm-3,117,R,ugm-3
01-01-2001,15:00,36,R,ugm-3 (GRAV EQ),86,R,ugm-3,52,R,ugm-3,183,R,ugm-3
01-01-2001,16:00,27,R,ugm-3 (GRAV EQ),83,R,ugm-3,53,R,ugm-3,180,R,ugm-3
01-01-2001,17:00,35,R,ugm-3 (GRAV EQ),55,R,ugm-3,52,R,ugm-3,136,R,ugm-3
01-01-2001,18:00,35,R,ugm-3 (GRAV EQ),28,R,ugm-3,40,R,ugm-3,82,R,ugm-3
01-01-2001,19:00,31,R,ugm-3 (GRAV EQ),21,R,ugm-3,34,R,ugm-3,67,R,ugm-3
01-01-2001,20:00,25,R,ugm-3 (GRAV EQ),15,R,ugm-3,31,R,ugm-3,53,R,ugm-3
01-01-2001,21:00,23,R,ugm-3 (GRAV EQ),26,R,ugm-3,36,R,ugm-3,76,R,ugm-3
01-01-2001,22:00,26,R,ugm-3 (GRAV EQ),13,R,ugm-3,25,R,ugm-3,44,R,ugm-3
01-01-2001,23:00,26,R,ugm-3 (GRAV EQ),23,R,ugm-3,31,R,ugm-3,65,R,ugm-3
01-01-2001,24:00,22,R,ugm-3 (GRAV EQ),10,R,ugm-3,25,R,ugm-3,40,R,ugm-3
02-01-2001,01:00,22,R,ugm-3 (GRAV EQ),1,R,ugm-3,17,R,ugm-3,19,R,ugm-3
02-01-2001,02:00,18,R,ugm-3 (GRAV EQ),5,R,ugm-3,17,R,ugm-3,25,R,ugm-3
02-01-2001,03:00,13,R,ugm-3 (GRAV EQ),1,R,ugm-3,11,R,ugm-3,13,R,ugm-3
02-01-2001,04:00,12,R,ugm-3 (GRAV EQ),1,R,ugm-3,11,R,ugm-3,13,R,ugm-3
02-01-2001,05:00,9,R,ugm-3 (GRAV EQ),1,R,ugm-3,13,R,ugm-3,15,R,ugm-3
02-01-2001,06:00,8,R,ugm-3 (GRAV EQ),9,R,ugm-3,17,R,ugm-3,31,R,ugm-3
02-01-2001,07:00,7,R,ugm-3 (GRAV EQ),23,R,ugm-3,34,R,ugm-3,69,R,ugm-3
02-01-2001,08:00,21,R,ugm-3 (GRAV EQ),85,R,ugm-3,65,R,ugm-3,195,R,ugm-3
02-01-2001,09:00,22,R,ugm-3 (GRAV EQ),66,R,ugm-3,57,R,ugm-3,159,R,ugm-3
02-01-2001,10:00,20,R,ugm-3 (GRAV EQ),110,R,ugm-3,69,R,ugm-3,237,R,ugm-3
02-01-2001,11:00,25,R,ugm-3 (GRAV EQ),105,R,ugm-3,71,R,ugm-3,231,R,ugm-3
02-01-2001,12:00,21,R,ugm-3 (GRAV EQ),126,R,ugm-3,78,R,ugm-3,271,R,ugm-3
02-01-2001,13:00,25,R,ugm-3 (GRAV EQ),138,R,ugm-3,78,R,ugm-3,288,R,ugm-3
02-01-2001,14:00,36,R,ugm-3 (GRAV EQ),210,R,ugm-3,90,R,ugm-3,411,R,ugm-3
02-01-2001,15:00,31,R,ugm-3 (GRAV EQ),250,R,ugm-3,94,R,ugm-3,476,R,ugm-3
02-01-2001,16:00,21,R,ugm-3 (GRAV EQ),76,R,ugm-3,69,R,ugm-3,185,R,ugm-3
02-01-2001,17:00,43,R,ugm-3 (GRAV EQ),65,R,ugm-3,61,R,ugm-3,160,R,ugm-3
02-01-2001,18:00,29,R,ugm-3 (GRAV EQ),163,R,ugm-3,74,R,ugm-3,323,R,ugm-3
02-01-2001,19:00,25,R,ugm-3 (GRAV EQ),124,R,ugm-3,63,R,ugm-3,252,R,ugm-3
02-01-2001,20:00,21,R,ugm-3 (GRAV EQ),81,R,ugm-3,55,R,ugm-3,180,R,ugm-3
02-01-2001,21:00,20,R,ugm-3 (GRAV EQ),63,R,ugm-3,48,R,ugm-3,143,R,ugm-3
02-01-2001,22:00,14,R,ugm-3 (GRAV EQ),44,R,ugm-3,40,R,ugm-3,107,R,ugm-3
02-01-2001,23:00,5,R,ugm-3 (GRAV EQ),34,R,ugm-3,34,R,ugm-3,86,R,ugm-3
02-01-2001,24:00,5,R,ugm-3 (GRAV EQ),15,R,ugm-3,27,R,ugm-3,50,R,ugm-3
03-01-2001,01:00,9,R,ugm-3 (GRAV EQ),3,R,ugm-3,17,R,ugm-3,21,R,ugm-3
03-01-2001,02:00,14,R,ugm-3 (GRAV EQ),21,R,ugm-3,36,R,ugm-3,69,R,ugm-3
03-01-2001,03:00,12,R,ugm-3 (GRAV EQ),13,R,ugm-3,19,R,ugm-3,38,R,ugm-3
03-01-2001,04:00,10,R,ugm-3 (GRAV EQ),3,R,ugm-3,13,R,ugm-3,17,R,ugm-3
03-01-2001,05:00,13,R,ugm-3 (GRAV EQ),4,R,ugm-3,13,R,ugm-3,19,R,ugm-3
03-01-2001,06:00,13,R,ugm-3 (GRAV EQ),10,R,ugm-3,19,R,ugm-3,34,R,ugm-3
03-01-2001,07:00,14,R,ugm-3 (GRAV EQ),24,R,ugm-3,25,R,ugm-3,61,R,ugm-3
03-01-2001,08:00,18,R,ugm-3 (GRAV EQ),86,R,ugm-3,53,R,ugm-3,185,R,ugm-3
03-01-2001,09:00,22,R,ugm-3 (GRAV EQ),69,R,ugm-3,48,R,ugm-3,153,R,ugm-3
03-01-2001,10:00,25,R,ugm-3 (GRAV EQ),106,R,ugm-3,63,R,ugm-3,225,R,ugm-3
03-01-2001,11:00,21,R,ugm-3 (GRAV EQ),54,R,ugm-3,46,R,ugm-3,128,R,ugm-3
03-01-2001,12:00,22,R,ugm-3 (GRAV EQ),69,R,ugm-3,53,R,ugm-3,159,R,ugm-3
03-01-2001,13:00,25,R,ugm-3 (GRAV EQ),74,R,ugm-3,55,R,ugm-3,168,R,ugm-3
03-01-2001,14:00,23,R,ugm-3 (GRAV EQ),80,R,ugm-3,59,R,ugm-3,181,R,ugm-3
03-01-2001,15:00,16,R,ugm-3 (GRAV EQ),90,R,ugm-3,67,R,ugm-3,204,R,ugm-3
03-01-2001,16:00,,,,69,R,ugm-3,61,R,ugm-3,166,R,ugm-3
03-01-2001,17:00,16,R,ugm-3 (GRAV EQ),70,R,ugm-3,65,R,ugm-3,172,R,ugm-3
03-01-2001,18:00,17,R,ugm-3 (GRAV EQ),59,R,ugm-3,59,R,ugm-3,149,R,ugm-3
03-01-2001,19:00,20,R,ugm-3 (GRAV EQ),31,R,ugm-3,50,R,ugm-3,97,R,ugm-3
03-01-2001,20:00,22,R,ugm-3 (GRAV EQ),31,R,ugm-3,53,R,ugm-3,101,R,ugm-3
03-01-2001,21:00,18,R,ugm-3 (GRAV EQ),28,R,ugm-3,48,R,ugm-3,90,R,ugm-3
03-01-2001,22:00,13,R,ugm-3 (GRAV EQ),16,R,ugm-3,36,R,ugm-3,61,R,ugm-3
03-01-2001,23:00,8,R,ugm-3 (GRAV EQ),13,R,ugm-3,36,R,ugm-3,55,R,ugm-3
03-01-2001,24:00,10,R,ugm-3 (GRAV EQ),14,R,ugm-3,36,R,ugm-3,57,R,ugm-3
04-01-2001,01:00,13,R,ugm-3 (GRAV EQ),4,R,ugm-3,27,R,ugm-3,32,R,ugm-3
04-01-2001,02:00,13,R,ugm-3 (GRAV EQ),1,R,ugm-3,25,R,ugm-3,27,R,ugm-3
04-01-2001,03:00,13,R,ugm-3 (GRAV EQ),9,R,ugm-3,23,R,ugm-3,36,R,ugm-3
04-01-2001,04:00,13,R,ugm-3 (GRAV EQ),4,R,ugm-3,25,R,ugm-3,31,R,ugm-3
04-01-2001,05:00,14,R,ugm-3 (GRAV EQ),4,R,ugm-3,25,R,ugm-3,31,R,ugm-3
04-01-2001,06:00,14,R,ugm-3 (GRAV EQ),15,R,ugm-3,27,R,ugm-3,50,R,ugm-3
04-01-2001,07:00,17,R,ugm-3 (GRAV EQ),45,R,ugm-3,34,R,ugm-3,103,R,ugm-3
04-01-2001,08:00,21,R,ugm-3 (GRAV EQ),61,R,ugm-3,48,R,ugm-3,141,R,ugm-3
04-01-2001,09:00,27,R,ugm-3 (GRAV EQ),123,R,ugm-3,59,R,ugm-3,246,R,ugm-3
04-01-2001,10:00,34,R,ugm-3 (GRAV EQ),161,R,ugm-3,71,R,ugm-3,317,R,ugm-3
04-01-2001,11:00,30,R,ugm-3 (GRAV EQ),125,R,ugm-3,63,R,ugm-3,254,R,ugm-3
04-01-2001,12:00,35,R,ugm-3 (GRAV EQ),130,R,ugm-3,67,R,ugm-3,265,R,ugm-3
04-01-2001,13:00,40,R,ugm-3 (GRAV EQ),235,R,ugm-3,80,R,ugm-3,439,R,ugm-3
04-01-2001,14:00,36,R,ugm-3 (GRAV EQ),171,R,ugm-3,74,R,ugm-3,336,R,ugm-3
04-01-2001,15:00,38,R,ugm-3 (GRAV EQ),146,R,ugm-3,65,R,ugm-3,288,R,ugm-3
04-01-2001,16:00,46,R,ugm-3 (GRAV EQ),189,R,ugm-3,73,R,ugm-3,361,R,ugm-3
04-01-2001,17:00,53,R,ugm-3 (GRAV EQ),246,R,ugm-3,74,R,ugm-3,451,R,ugm-3
04-01-2001,18:00,38,R,ugm-3 (GRAV EQ),205,R,ugm-3,73,R,ugm-3,386,R,ugm-3
04-01-2001,19:00,25,R,ugm-3 (GRAV EQ),174,R,ugm-3,69,R,ugm-3,334,R,ugm-3
04-01-2001,20:00,18,R,ugm-3 (GRAV EQ),81,R,ugm-3,53,R,ugm-3,178,R,ugm-3
04-01-2001,21:00,21,R,ugm-3 (GRAV EQ),94,R,ugm-3,59,R,ugm-3,202,R,ugm-3
04-01-2001,22:00,22,R,ugm-3 (GRAV EQ),131,R,ugm-3,65,R,ugm-3,265,R,ugm-3
04-01-2001,23:00,18,R,ugm-3 (GRAV EQ),68,R,ugm-3,52,R,ugm-3,155,R,ugm-3
04-01-2001,24:00,17,R,ugm-3 (GRAV EQ),71,R,ugm-3,50,R,ugm-3,159,R,ugm-3
05-01-2001,01:00,13,R,ugm-3 (GRAV EQ),30,R,ugm-3,38,R,ugm-3,84,R,ugm-3
05-01-2001,02:00,10,R,ugm-3 (GRAV EQ),10,R,ugm-3,29,R,ugm-3,44,R,ugm-3
05-01-2001,03:00,13,R,ugm-3 (GRAV EQ),21,R,ugm-3,32,R,ugm-3,65,R,ugm-3
05-01-2001,04:00,12,R,ugm-3 (GRAV EQ),9,R,ugm-3,25,R,ugm-3,38,R,ugm-3
05-01-2001,05:00,13,R,ugm-3 (GRAV EQ),11,R,ugm-3,27,R,ugm-3,44,R,ugm-3
05-01-2001,06:00,16,R,ugm-3 (GRAV EQ),51,R,ugm-3,34,R,ugm-3,113,R,ugm-3
05-01-2001,07:00,20,R,ugm-3 (GRAV EQ),100,R,ugm-3,44,R,ugm-3,197,R,ugm-3
05-01-2001,08:00,30,R,ugm-3 (GRAV EQ),186,R,ugm-3,61,R,ugm-3,346,R,ugm-3
05-01-2001,09:00,33,R,ugm-3 (GRAV EQ),208,R,ugm-3,69,R,ugm-3,386,R,ugm-3
05-01-2001,10:00,29,R,ugm-3 (GRAV EQ),216,R,ugm-3,82,R,ugm-3,413,R,ugm-3
05-01-2001,11:00,38,R,ugm-3 (GRAV EQ),253,R,ugm-3,78,R,ugm-3,464,R,ugm-3
05-01-2001,12:00,46,R,ugm-3 (GRAV EQ),188,R,ugm-3,73,R,ugm-3,359,R,ugm-3
05-01-2001,13:00,36,R,ugm-3 (GRAV EQ),133,R,ugm-3,59,R,ugm-3,262,R,ugm-3
05-01-2001,14:00,34,R,ugm-3 (GRAV EQ),113,R,ugm-3,53,R,ugm-3,225,R,ugm-3
05-01-2001,15:00,35,R,ugm-3 (GRAV EQ),168,R,ugm-3,65,R,ugm-3,321,R,ugm-3
05-01-2001,16:00,35,R,ugm-3 (GRAV EQ),193,R,ugm-3,65,R,ugm-3,359,R,ugm-3
05-01-2001,17:00,34,R,ugm-3 (GRAV EQ),198,R,ugm-3,63,R,ugm-3,365,R,ugm-3
05-01-2001,18:00,48,R,ugm-3 (GRAV EQ),348,R,ugm-3,86,R,ugm-3,617,R,ugm-3
05-01-2001,19:00,42,R,ugm-3 (GRAV EQ),278,R,ugm-3,80,R,ugm-3,504,R,ugm-3
05-01-2001,20:00,48,R,ugm-3 (GRAV EQ),348,R,ugm-3,88,R,ugm-3,619,R,ugm-3
05-01-2001,21:00,35,R,ugm-3 (GRAV EQ),254,R,ugm-3,86,R,ugm-3,474,R,ugm-3
05-01-2001,22:00,47,R,ugm-3 (GRAV EQ),298,R,ugm-3,86,R,ugm-3,541,R,ugm-3
05-01-2001,23:00,30,R,ugm-3 (GRAV EQ),179,R,ugm-3,76,R,ugm-3,350,R,ugm-3
05-01-2001,24:00,43,R,ugm-3 (GRAV EQ),279,R,ugm-3,78,R,ugm-3,504,R,ugm-3
06-01-2001,01:00,22,R,ugm-3 (GRAV EQ),103,R,ugm-3,57,R,ugm-3,214,R,ugm-3
06-01-2001,02:00,21,R,ugm-3 (GRAV EQ),68,R,ugm-3,48,R,ugm-3,151,R,ugm-3
06-01-2001,03:00,13,R,ugm-3 (GRAV EQ),25,R,ugm-3,34,R,ugm-3,73,R,ugm-3
06-01-2001,04:00,9,R,ugm-3 (GRAV EQ),18,R,ugm-3,31,R,ugm-3,57,R,ugm-3
06-01-2001,05:00,8,R,ugm-3 (GRAV EQ),16,R,ugm-3,36,R,ugm-3,61,R,ugm-3
06-01-2001,06:00,9,R,ugm-3 (GRAV EQ),23,R,ugm-3,36,R,ugm-3,71,R,ugm-3
06-01-2001,07:00,10,R,ugm-3 (GRAV EQ),51,R,ugm-3,44,R,ugm-3,122,R,ugm-3
06-01-2001,08:00,8,R,ugm-3 (GRAV EQ),34,R,ugm-3,34,R,ugm-3,86,R,ugm-3
06-01-2001,09:00,13,R,ugm-3 (GRAV EQ),69,R,ugm-3,53,R,ugm-3,159,R,ugm-3
06-01-2001,10:00,18,R,ugm-3 (GRAV EQ),114,R,ugm-3,57,R,ugm-3,231,R,ugm-3
06-01-2001,11:00,22,R,ugm-3 (GRAV EQ),121,R,ugm-3,61,R,ugm-3,246,R,ugm-3
06-01-2001,12:00,23,R,ugm-3 (GRAV EQ),133,R,ugm-3,67,R,ugm-3,269,R,ugm-3
06-01-2001,13:00,21,R,ugm-3 (GRAV EQ),115,R,ugm-3,55,R,ugm-3,231,R,ugm-3
06-01-2001,14:00,20,R,ugm-3 (GRAV EQ),96,R,ugm-3,57,R,ugm-3,204,R,ugm-3
06-01-2001,15:00,17,R,ugm-3 (GRAV EQ),50,R,ugm-3,42,R,ugm-3,118,R,ugm-3
06-01-2001,16:00,18,R,ugm-3 (GRAV EQ),68,R,ugm-3,46,R,ugm-3,149,R,ugm-3
06-01-2001,17:00,17,R,ugm-3 (GRAV EQ),68,R,ugm-3,46,R,ugm-3,149,R,ugm-3
06-01-2001,18:00,16,R,ugm-3 (GRAV EQ),64,R,ugm-3,52,R,ugm-3,149,R,ugm-3
06-01-2001,19:00,20,R,ugm-3 (GRAV EQ),80,R,ugm-3,55,R,ugm-3,178,R,ugm-3
06-01-2001,20:00,16,R,ugm-3 (GRAV EQ),55,R,ugm-3,48,R,ugm-3,132,R,ugm-3
06-01-2001,21:00,17,R,ugm-3 (GRAV EQ),53,R,ugm-3,48,R,ugm-3,128,R,ugm-3
06-01-2001,22:00,18,R,ugm-3 (GRAV EQ),61,R,ugm-3,50,R,ugm-3,143,R,ugm-3
06-01-2001,23:00,17,R,ugm-3 (GRAV EQ),51,R,ugm-3,44,R,ugm-3,122,R,ugm-3
06-01-2001,24:00,21,R,ugm-3 (GRAV EQ),59,R,ugm-3,50,R,ugm-3,139,R,ugm-3
07-01-2001,01:00,12,R,ugm-3 (GRAV EQ),11,R,ugm-3,23,R,ugm-3,40,R,ugm-3
07-01-2001,02:00,12,R,ugm-3 (GRAV EQ),13,R,ugm-3,23,R,ugm-3,42,R,ugm-3
07-01-2001,03:00,10,R,ugm-3 (GRAV EQ),5,R,ugm-3,15,R,ugm-3,23,R,ugm-3
07-01-2001,04:00,7,R,ugm-3 (GRAV EQ),3,R,ugm-3,15,R,ugm-3,19,R,ugm-3
07-01-2001,05:00,7,R,ugm-3 (GRAV EQ),4,R,ugm-3,15,R,ugm-3,21,R,ugm-3
07-01-2001,06:00,5,R,ugm-3 (GRAV EQ),3,R,ugm-3,11,R,ugm-3,15,R,ugm-3
07-01-2001,07:00,4,R,ugm-3 (GRAV EQ),5,R,ugm-3,15,R,ugm-3,23,R,ugm-3
07-01-2001,08:00,7,R,ugm-3 (GRAV EQ),8,R,ugm-3,19,R,ugm-3,31,R,ugm-3
07-01-2001,09:00,8,R,ugm-3 (GRAV EQ),13,R,ugm-3,25,R,ugm-3,44,R,ugm-3
07-01-2001,10:00,13,R,ugm-3 (GRAV EQ),26,R,ugm-3,32,R,ugm-3,73,R,ugm-3
07-01-2001,11:00,20,R,ugm-3 (GRAV EQ),56,R,ugm-3,42,R,ugm-3,128,R,ugm-3
07-01-2001,12:00,18,R,ugm-3 (GRAV EQ),24,R,ugm-3,27,R,ugm-3,63,R,ugm-3
07-01-2001,13:00,16,R,ugm-3 (GRAV EQ),28,R,ugm-3,27,R,ugm-3,69,R,ugm-3
07-01-2001,14:00,17,R,ugm-3 (GRAV EQ),36,R,ugm-3,31,R,ugm-3,86,R,ugm-3
07-01-2001,15:00,17,R,ugm-3 (GRAV EQ),31,R,ugm-3,31,R,ugm-3,78,R,ugm-3
07-01-2001,16:00,13,R,ugm-3 (GRAV EQ),39,R,ugm-3,34,R,ugm-3,94,R,ugm-3
07-01-2001,17:00,9,R,ugm-3 (GRAV EQ),51,R,ugm-3,36,R,ugm-3,115,R,ugm-3
07-01-2001,18:00,9,R,ugm-3 (GRAV EQ),44,R,ugm-3,38,R,ugm-3,105,R,ugm-3
07-01-2001,19:00,16,R,ugm-3 (GRAV EQ),54,R,ugm-3,44,R,ugm-3,126,R,ugm-3
07-01-2001,20:00,18,R,ugm-3 (GRAV EQ),95,R,ugm-3,55,R,ugm-3,201,R,ugm-3
07-01-2001,21:00,20,R,ugm-3 (GRAV EQ),63,R,ugm-3,50,R,ugm-3,145,R,ugm-3
07-01-2001,22:00,14,R,ugm-3 (GRAV EQ),33,R,ugm-3,40,R,ugm-3,90,R,ugm-3
07-01-2001,23:00,17,R,ugm-3 (GRAV EQ),39,R,ugm-3,38,R,ugm-3,97,R,ugm-3
07-01-2001,24:00,13,R,ugm-3 (GRAV EQ),24,R,ugm-3,31,R,ugm-3,67,R,ugm-3
08-01-2001,01:00,12,R,ugm-3 (GRAV EQ),46,R,ugm-3,36,R,ugm-3,107,R,ugm-3
08-01-2001,02:00,9,R,ugm-3 (GRAV EQ),15,R,ugm-3,23,R,ugm-3,46,R,ugm-3
08-01-2001,03:00,9,R,ugm-3 (GRAV EQ),3,R,ugm-3,15,R,ugm-3,19,R,ugm-3
08-01-2001,04:00,8,R,ugm-3 (GRAV EQ),3,R,ugm-3,13,R,ugm-3,17,R,ugm-3
08-01-2001,05:00,8,R,ugm-3 (GRAV EQ),13,R,ugm-3,19,R,ugm-3,38,R,ugm-3
08-01-2001,06:00,8,R,ugm-3 (GRAV EQ),31,R,ugm-3,29,R,ugm-3,76,R,ugm-3
08-01-2001,07:00,10,R,ugm-3 (GRAV EQ),71,R,ugm-3,48,R,ugm-3,157,R,ugm-3
08-01-2001,08:00,27,R,ugm-3 (GRAV EQ),239,R,ugm-3,74,R,ugm-3,439,R,ugm-3
08-01-2001,09:00,43,R,ugm-3 (GRAV EQ),396,R,ugm-3,105,R,ugm-3,711,R,ugm-3
08-01-2001,10:00,53,R,ugm-3 (GRAV EQ),411,R,ugm-3,111,R,ugm-3,739,R,ugm-3
08-01-2001,11:00,18,R,ugm-3 (GRAV EQ),104,R,ugm-3,59,R,ugm-3,218,R,ugm-3
08-01-2001,12:00,29,R,ugm-3 (GRAV EQ),70,R,ugm-3,50,R,ugm-3,157,R,ugm-3
08-01-2001,13:00,10,R,ugm-3 (GRAV EQ),33,R,ugm-3,34,R,ugm-3,84,R,ugm-3
08-01-2001,14:00,12,R,ugm-3 (GRAV EQ),38,R,ugm-3,40,R,ugm-3,97,R,ugm-3
08-01-2001,15:00,12,R,ugm-3 (GRAV EQ),28,R,ugm-3,31,R,ugm-3,73,R,ugm-3
08-01-2001,16:00,16,R,ugm-3 (GRAV EQ),65,R,ugm-3,50,R,ugm-3,149,R,ugm-3
08-01-2001,17:00,25,R,ugm-3 (GRAV EQ),171,R,ugm-3,78,R,ugm-3,340,R,ugm-3
08-01-2001,18:00,22,R,ugm-3 (GRAV EQ),151,R,ugm-3,73,R,ugm-3,304,R,ugm-3
08-01-2001,19:00,16,R,ugm-3 (GRAV EQ),59,R,ugm-3,48,R,ugm-3,138,R,ugm-3
08-01-2001,20:00,17,R,ugm-3 (GRAV EQ),63,R,ugm-3,50,R,ugm-3,145,R,ugm-3
08-01-2001,21:00,16,R,ugm-3 (GRAV EQ),65,R,ugm-3,52,R,ugm-3,151,R,ugm-3
08-01-2001,22:00,16,R,ugm-3 (GRAV EQ),65,R,ugm-3,52,R,ugm-3,151,R,ugm-3
08-01-2001,23:00,16,R,ugm-3 (GRAV EQ),25,R,ugm-3,32,R,ugm-3,71,R,ugm-3
08-01-2001,24:00,13,R,ugm-3 (GRAV EQ),14,R,ugm-3,25,R,ugm-3,46,R,ugm-3
09-01-2001,01:00,9,R,ugm-3 (GRAV EQ),1,R,ugm-3,11,R,ugm-3,13,R,ugm-3
09-01-2001,02:00,9,R,ugm-3 (GRAV EQ),11,R,ugm-3,19,R,ugm-3,36,R,ugm-3
09-01-2001,03:00,10,R,ugm-3 (GRAV EQ),11,R,ugm-3,21,R,ugm-3,38,R,ugm-3
09-01-2001,04:00,9,R,ugm-3 (GRAV EQ),4,R,ugm-3,17,R,ugm-3,23,R,ugm-3
09-01-2001,05:00,10,R,ugm-3 (GRAV EQ),16,R,ugm-3,32,R,ugm-3,57,R,ugm-3
09-01-2001,06:00,14,R,ugm-3 (GRAV EQ),48,R,ugm-3,44,R,ugm-3,117,R,ugm-3
09-01-2001,07:00,21,R,ugm-3 (GRAV EQ),148,R,ugm-3,59,R,ugm-3,285,R,ugm-3
09-01-2001,08:00,29,R,ugm-3 (GRAV EQ),258,R,ugm-3,73,R,ugm-3,466,R,ugm-3
09-01-2001,09:00,23,R,ugm-3 (GRAV EQ),160,R,ugm-3,65,R,ugm-3,309,R,ugm-3
09-01-2001,10:00,43,R,ugm-3 (GRAV EQ),304,R,ugm-3,88,R,ugm-3,552,R,ugm-3
09-01-2001,11:00,42,R,ugm-3 (GRAV EQ),289,R,ugm-3,80,R,ugm-3,521,R,ugm-3
09-01-2001,12:00,29,R,ugm-3 (GRAV EQ),145,R,ugm-3,65,R,ugm-3,287,R,ugm-3
09-01-2001,13:00,62,R,ugm-3 (GRAV EQ),221,R,ugm-3,71,R,ugm-3,409,R,ugm-3
09-01-2001,14:00,27,R,ugm-3 (GRAV EQ),210,R,ugm-3,76,R,ugm-3,397,R,ugm-3
09-01-2001,15:00,30,R,ugm-3 (GRAV EQ),203,R,ugm-3,76,R,ugm-3,386,R,ugm-3
09-01-2001,16:00,39,R,ugm-3 (GRAV EQ),235,R,ugm-3,82,R,ugm-3,441,R,ugm-3
09-01-2001,17:00,53,R,ugm-3 (GRAV EQ),223,R,ugm-3,86,R,ugm-3,426,R,ugm-3
09-01-2001,18:00,73,R,ugm-3 (GRAV EQ),370,R,ugm-3,88,R,ugm-3,653,R,ugm-3
09-01-2001,19:00,56,R,ugm-3 (GRAV EQ),289,R,ugm-3,76,R,ugm-3,518,R,ugm-3
09-01-2001,20:00,55,R,ugm-3 (GRAV EQ),286,R,ugm-3,74,R,ugm-3,512,R,ugm-3
09-01-2001,21:00,44,R,ugm-3 (GRAV EQ),194,R,ugm-3,65,R,ugm-3,361,R,ugm-3
09-01-2001,22:00,27,R,ugm-3 (GRAV EQ),144,R,ugm-3,63,R,ugm-3,283,R,ugm-3
09-01-2001,23:00,12,R,ugm-3 (GRAV EQ),63,R,ugm-3,59,R,ugm-3,155,R,ugm-3
09-01-2001,24:00,14,R,ugm-3 (GRAV EQ),59,R,ugm-3,52,R,ugm-3,141,R,ugm-3
10-01-2001,01:00,10,R,ugm-3 (GRAV EQ),16,R,ugm-3,40,R,ugm-3,65,R,ugm-3
10-01-2001,02:00,9,R,ugm-3 (GRAV EQ),30,R,ugm-3,44,R,ugm-3,90,R,ugm-3
10-01-2001,03:00,7,R,ugm-3 (GRAV EQ),8,R,ugm-3,27,R,ugm-3,38,R,ugm-3
10-01-2001,04:00,8,R,ugm-3 (GRAV EQ),6,R,ugm-3,31,R,ugm-3,40,R,ugm-3
10-01-2001,05:00,9,R,ugm-3 (GRAV EQ),16,R,ugm-3,38,R,ugm-3,63,R,ugm-3
10-01-2001,06:00,13,R,ugm-3 (GRAV EQ),65,R,ugm-3,53,R,ugm-3,153,R,ugm-3
10-01-2001,07:00,18,R,ugm-3 (GRAV EQ),123,R,ugm-3,67,R,ugm-3,254,R,ugm-3
10-01-2001,08:00,26,R,ugm-3 (GRAV EQ),198,R,ugm-3,86,R,ugm-3,388,R,ugm-3
10-01-2001,09:00,26,R,ugm-3 (GRAV EQ),180,R,ugm-3,90,R,ugm-3,365,R,ugm-3
10-01-2001,10:00,40,R,ugm-3 (GRAV EQ),250,R,ugm-3,101,R,ugm-3,483,R,ugm-3
10-01-2001,11:00,27,R,ugm-3 (GRAV EQ),108,R,ugm-3,71,R,ugm-3,235,R,ugm-3
10-01-2001,12:00,20,R,ugm-3 (GRAV EQ),84,R,ugm-3,55,R,ugm-3,183,R,ugm-3
10-01-2001,13:00,31,R,ugm-3 (GRAV EQ),93,R,ugm-3,55,R,ugm-3,197,R,ugm-3
10-01-2001,14:00,27,R,ugm-3 (GRAV EQ),95,R,ugm-3,61,R,ugm-3,206,R,ugm-3
10-01-2001,15:00,18,R,ugm-3 (GRAV EQ),160,R,ugm-3,82,R,ugm-3,327,R,ugm-3
10-01-2001,16:00,30,R,ugm-3 (GRAV EQ),136,R,ugm-3,73,R,ugm-3,281,R,ugm-3
10-01-2001,17:00,51,R,ugm-3 (GRAV EQ),125,R,ugm-3,69,R,ugm-3,260,R,ugm-3
10-01-2001,18:00,38,R,ugm-3 (GRAV EQ),84,R,ugm-3,61,R,ugm-3,189,R,ugm-3
10-01-2001,19:00,47,R,ugm-3 (GRAV EQ),80,R,ugm-3,52,R,ugm-3,174,R,ugm-3
10-01-2001,20:00,55,R,ugm-3 (GRAV EQ),43,R,ugm-3,42,R,ugm-3,107,R,ugm-3
10-01-2001,21:00,42,R,ugm-3 (GRAV EQ),26,R,ugm-3,31,R,ugm-3,71,R,ugm-3
10-01-2001,22:00,31,R,ugm-3 (GRAV EQ),20,R,ugm-3,29,R,ugm-3,59,R,ugm-3
10-01-2001,23:00,30,R,ugm-3 (GRAV EQ),18,R,ugm-3,25,R,ugm-3,52,R,ugm-3
10-01-2001,24:00,29,R,ugm-3 (GRAV EQ),18,R,ugm-3,31,R,ugm-3,57,R,ugm-3
11-01-2001,01:00,17,R,ugm-3 (GRAV EQ),5,R,ugm-3,25,R,ugm-3,32,R,ugm-3
11-01-2001,02:00,17,R,ugm-3 (GRAV EQ),5,R,ugm-3,17,R,ugm-3,25,R,ugm-3
11-01-2001,03:00,16,R,ugm-3 (GRAV EQ),8,R,ugm-3,17,R,ugm-3,29,R,ugm-3
11-01-2001,04:00,12,R,ugm-3 (GRAV EQ),5,R,ugm-3,13,R,ugm-3,21,R,ugm-3
11-01-2001,05:00,14,R,ugm-3 (GRAV EQ),8,R,ugm-3,13,R,ugm-3,25,R,ugm-3
11-01-2001,06:00,17,R,ugm-3 (GRAV EQ),9,R,ugm-3,23,R,ugm-3,36,R,ugm-3
11-01-2001,07:00,13,R,ugm-3 (GRAV EQ),31,R,ugm-3,40,R,ugm-3,88,R,ugm-3
11-01-2001,08:00,23,R,ugm-3 (GRAV EQ),94,R,ugm-3,67,R,ugm-3,210,R,ugm-3
11-01-2001,09:00,29,R,ugm-3 (GRAV EQ),166,R,ugm-3,90,R,ugm-3,344,R,ugm-3
11-01-2001,10:00,34,R,ugm-3 (GRAV EQ),135,R,ugm-3,90,R,ugm-3,296,R,ugm-3
11-01-2001,11:00,23,R,ugm-3 (GRAV EQ),129,R,ugm-3,69,R,ugm-3,265,R,ugm-3
11-01-2001,12:00,26,R,ugm-3 (GRAV EQ),110,R,ugm-3,67,R,ugm-3,235,R,ugm-3
11-01-2001,13:00,,,,69,R,ugm-3,57,R,ugm-3,162,R,ugm-3
11-01-2001,14:00,,,,129,R,ugm-3,99,R,ugm-3,296,R,ugm-3
11-01-2001,15:00,21,R,ugm-3 (GRAV EQ),125,R,ugm-3,74,R,ugm-3,265,R,ugm-3
11-01-2001,16:00,47,R,ugm-3 (GRAV EQ),108,R,ugm-3,71,R,ugm-3,235,R,ugm-3
11-01-2001,17:00,56,R,ugm-3 (GRAV EQ),149,R,ugm-3,94,R,ugm-3,321,R,ugm-3
11-01-2001,18:00,26,R,ugm-3 (GRAV EQ),110,R,ugm-3,73,R,ugm-3,241,R,ugm-3
11-01-2001,19:00,21,R,ugm-3 (GRAV EQ),90,R,ugm-3,67,R,ugm-3,204,R,ugm-3
11-01-2001,20:00,21,R,ugm-3 (GRAV EQ),59,R,ugm-3,61,R,ugm-3,151,R,ugm-3
11-01-2001,21:00,22,R,ugm-3 (GRAV EQ),45,R,ugm-3,50,R,ugm-3,118,R,ugm-3
11-01-2001,22:00,18,R,ugm-3 (GRAV EQ),29,R,ugm-3,36,R,ugm-3,80,R,ugm-3
11-01-2001,23:00,13,R,ugm-3 (GRAV EQ),21,R,ugm-3,34,R,ugm-3,67,R,ugm-3
11-01-2001,24:00,14,R,ugm-3 (GRAV EQ),20,R,ugm-3,36,R,ugm-3,67,R,ugm-3
12-01-2001,01:00,13,R,ugm-3 (GRAV EQ),6,R,ugm-3,21,R,ugm-3,31,R,ugm-3
12-01-2001,02:00,13,R,ugm-3 (GRAV EQ),8,R,ugm-3,19,R,ugm-3,31,R,ugm-3
12-01-2001,03:00,12,R,ugm-3 (GRAV EQ),3,R,ugm-3,15,R,ugm-3,19,R,ugm-3
12-01-2001,04:00,12,R,ugm-3 (GRAV EQ),3,R,ugm-3,15,R,ugm-3,19,R,ugm-3
12-01-2001,05:00,12,R,ugm-3 (GRAV EQ),20,R,ugm-3,29,R,ugm-3,59,R,ugm-3
12-01-2001,06:00,10,R,ugm-3 (GRAV EQ),9,R,ugm-3,25,R,ugm-3,38,R,ugm-3
12-01-2001,07:00,12,R,ugm-3 (GRAV EQ),39,R,ugm-3,48,R,ugm-3,107,R,ugm-3
12-01-2001,08:00,21,R,ugm-3 (GRAV EQ),70,R,ugm-3,59,R,ugm-3,166,R,ugm-3
12-01-2001,09:00,51,R,ugm-3 (GRAV EQ),155,R,ugm-3,86,R,ugm-3,323,R,ugm-3
12-01-2001,10:00,35,R,ugm-3 (GRAV EQ),78,R,ugm-3,61,R,ugm-3,180,R,ugm-3
12-01-2001,11:00,47,R,ugm-3 (GRAV EQ),106,R,ugm-3,65,R,ugm-3,227,R,ugm-3
12-01-2001,12:00,49,R,ugm-3 (GRAV EQ),109,R,ugm-3,63,R,ugm-3,229,R,ugm-3
12-01-2001,13:00,55,R,ugm-3 (GRAV EQ),109,R,ugm-3,67,R,ugm-3,233,R,ugm-3
12-01-2001,14:00,42,R,ugm-3 (GRAV EQ),109,R,ugm-3,65,R,ugm-3,231,R,ugm-3
12-01-2001,15:00,46,R,ugm-3 (GRAV EQ),134,R,ugm-3,73,R,ugm-3,277,R,ugm-3
12-01-2001,16:00,55,R,ugm-3 (GRAV EQ),216,R,ugm-3,94,R,ugm-3,424,R,ugm-3
12-01-2001,17:00,60,R,ugm-3 (GRAV EQ),226,R,ugm-3,99,R,ugm-3,445,R,ugm-3
12-01-2001,18:00,62,R,ugm-3 (GRAV EQ),219,R,ugm-3,90,R,ugm-3,424,R,ugm-3
12-01-2001,19:00,34,R,ugm-3 (GRAV EQ),79,R,ugm-3,59,R,ugm-3,180,R,ugm-3
12-01-2001,20:00,33,R,ugm-3 (GRAV EQ),94,R,ugm-3,61,R,ugm-3,204,R,ugm-3
12-01-2001,21:00,38,R,ugm-3 (GRAV EQ),133,R,ugm-3,86,R,ugm-3,288,R,ugm-3
12-01-2001,22:00,68,R,ugm-3 (GRAV EQ),220,R,ugm-3,109,R,ugm-3,445,R,ugm-3
12-01-2001,23:00,47,R,ugm-3 (GRAV EQ),155,R,ugm-3,82,R,ugm-3,319,R,ugm-3
12-01-2001,24:00,40,R,ugm-3 (GRAV EQ),179,R,ugm-3,80,R,ugm-3,353,R,ugm-3
13-01-2001,01:00,21,R,ugm-3 (GRAV EQ),48,R,ugm-3,55,R,ugm-3,128,R,ugm-3
13-01-2001,02:00,18,R,ugm-3 (GRAV EQ),39,R,ugm-3,42,R,ugm-3,101,R,ugm-3
13-01-2001,03:00,10,R,ugm-3 (GRAV EQ),36,R,ugm-3,42,R,ugm-3,97,R,ugm-3
13-01-2001,04:00,9,R,ugm-3 (GRAV EQ),21,R,ugm-3,36,R,ugm-3,69,R,ugm-3
13-01-2001,05:00,10,R,ugm-3 (GRAV EQ),29,R,ugm-3,40,R,ugm-3,84,R,ugm-3
13-01-2001,06:00,12,R,ugm-3 (GRAV EQ),40,R,ugm-3,40,R,ugm-3,101,R,ugm-3
13-01-2001,07:00,12,R,ugm-3 (GRAV EQ),68,R,ugm-3,48,R,ugm-3,151,R,ugm-3
13-01-2001,08:00,21,R,ugm-3 (GRAV EQ),150,R,ugm-3,55,R,ugm-3,285,R,ugm-3
13-01-2001,09:00,30,R,ugm-3 (GRAV EQ),260,R,ugm-3,80,R,ugm-3,478,R,ugm-3
13-01-2001,10:00,30,R,ugm-3 (GRAV EQ),230,R,ugm-3,109,R,ugm-3,460,R,ugm-3
13-01-2001,11:00,27,R,ugm-3 (GRAV EQ),131,R,ugm-3,76,R,ugm-3,277,R,ugm-3
13-01-2001,12:00,35,R,ugm-3 (GRAV EQ),188,R,ugm-3,84,R,ugm-3,371,R,ugm-3
13-01-2001,13:00,47,R,ugm-3 (GRAV EQ),136,R,ugm-3,73,R,ugm-3,281,R,ugm-3
13-01-2001,14:00,69,R,ugm-3 (GRAV EQ),155,R,ugm-3,80,R,ugm-3,317,R,ugm-3
13-01-2001,15:00,53,R,ugm-3 (GRAV EQ),141,R,ugm-3,82,R,ugm-3,298,R,ugm-3
13-01-2001,16:00,51,R,ugm-3 (GRAV EQ),249,R,ugm-3,94,R,ugm-3,474,R,ugm-3
13-01-2001,17:00,44,R,ugm-3 (GRAV EQ),310,R,ugm-3,96,R,ugm-3,569,R,ugm-3
13-01-2001,18:00,44,R,ugm-3 (GRAV EQ),254,R,ugm-3,86,R,ugm-3,474,R,ugm-3
13-01-2001,19:00,48,R,ugm-3 (GRAV EQ),244,R,ugm-3,71,R,ugm-3,443,R,ugm-3
13-01-2001,20:00,55,R,ugm-3 (GRAV EQ),249,R,ugm-3,74,R,ugm-3,455,R,ugm-3
13-01-2001,21:00,47,R,ugm-3 (GRAV EQ),201,R,ugm-3,69,R,ugm-3,376,R,ugm-3
13-01-2001,22:00,43,R,ugm-3 (GRAV EQ),163,R,ugm-3,63,R,ugm-3,311,R,ugm-3
13-01-2001,23:00,44,R,ugm-3 (GRAV EQ),194,R,ugm-3,69,R,ugm-3,365,R,ugm-3
13-01-2001,24:00,43,R,ugm-3 (GRAV EQ),116,R,ugm-3,44,R,ugm-3,222,R,ugm-3
14-01-2001,01:00,31,R,ugm-3 (GRAV EQ),85,R,ugm-3,34,R,ugm-3,164,R,ugm-3
14-01-2001,02:00,36,R,ugm-3 (GRAV EQ),113,R,ugm-3,36,R,ugm-3,208,R,ugm-3
14-01-2001,03:00,39,R,ugm-3 (GRAV EQ),118,R,ugm-3,40,R,ugm-3,220,R,ugm-3
14-01-2001,04:00,42,R,ugm-3 (GRAV EQ),99,R,ugm-3,31,R,ugm-3,181,R,ugm-3
14-01-2001,05:00,43,R,ugm-3 (GRAV EQ),61,R,ugm-3,27,R,ugm-3,120,R,ugm-3
14-01-2001,06:00,42,R,ugm-3 (GRAV EQ),60,R,ugm-3,23,R,ugm-3,115,R,ugm-3
14-01-2001,07:00,48,R,ugm-3 (GRAV EQ),73,R,ugm-3,31,R,ugm-3,141,R,ugm-3
14-01-2001,08:00,39,R,ugm-3 (GRAV EQ),60,R,ugm-3,34,R,ugm-3,126,R,ugm-3
14-01-2001,09:00,35,R,ugm-3 (GRAV EQ),98,R,ugm-3,44,R,ugm-3,193,R,ugm-3
14-01-2001,10:00,29,R,ugm-3 (GRAV EQ),114,R,ugm-3,50,R,ugm-3,223,R,ugm-3
14-01-2001,11:00,22,R,ugm-3 (GRAV EQ),114,R,ugm-3,48,R,ugm-3,222,R,ugm-3
14-01-2001,12:00,18,R,ugm-3 (GRAV EQ),100,R,ugm-3,44,R,ugm-3,197,R,ugm-3
14-01-2001,13:00,27,R,ugm-3 (GRAV EQ),80,R,ugm-3,40,R,ugm-3,162,R,ugm-3
14-01-2001,14:00,27,R,ugm-3 (GRAV EQ),101,R,ugm-3,42,R,ugm-3,197,R,ugm-3
14-01-2001,15:00,31,R,ugm-3 (GRAV EQ),214,R,ugm-3,59,R,ugm-3,386,R,ugm-3
14-01-2001,16:00,51,R,ugm-3 (GRAV EQ),163,R,ugm-3,52,R,ugm-3,300,R,ugm-3
14-01-2001,17:00,29,R,ugm-3 (GRAV EQ),141,R,ugm-3,48,R,ugm-3,264,R,ugm-3
14-01-2001,18:00,43,R,ugm-3 (GRAV EQ),126,R,ugm-3,38,R,ugm-3,231,R,ugm-3